Location: Mascot Post Office (historical)
(40.2645°N, 99.5462°W)
Time: 02:46:11
(UTC+00:00)

Cosmos 1802 Rocket - Pass Details

Date: 14 July 2020
Orbit: 954 x 1012 km, 82.9° (Epoch: 14 August)

Event Time Altitude Azimuth Distance (km) Brightness Sun altitude
Exits shadow 08:02:20 52° 161° (SSE) 1,231 4.2 -25.5°
Maximum altitude 08:03:57 74° 94° (E) 1,047 4.1 -25.4°
Drops below altitude 10° 08:10:22 10° 11° (N) 2,799 7.4 -25.0°
Sets 08:12:55 0° 10° (N) 3,755 8.3 -24.8°
